Regional Weather Roundup
Issued by NWS

Home | Current Version | Previous Version | Text Only | Print | Product List | Glossary Off
Versions: 1 2 3 4 5 6 7 8 9 10 11 12 13 14 15 16 17 18 19 20 21 22 23 24 25 26 27 28 29 30 31 32 33 34 35 36 37 38 39 40 41 42 43 44 45 46 47 48 49 50

000
ASUS43 KLMK 021610
RWRKY
KENTUCKY REGIONAL WEATHER ROUNDUP
NATIONAL WEATHER SERVICE LOUISVILLE KY
1200 PM EDT WED SEP 02 2015

NOTE "FAIR" INDICATES FEW OR NO CLOUDS BELOW 12,000 FEET
WITH NO SIGNIFICANT WEATHER AND/OR OBSTRUCTIONS TO VISIBILITY.

KYZ001>023-026-027-061>063-070>075-021700-
WESTERN AND SOUTH CENTRAL KENTUCKY

CITY           SKY/WX    TMP DP  RH WIND       PRES   REMARKS
PADUCAH        MOSUNNY   87  69  54 CALM      30.11F HX  91
HENDERSON      SUNNY     84  68  58 CALM      30.11F
OWENSBORO      SUNNY     88  70  55 S6        30.14F HX  93
HOPKINSVILLE   SUNNY     85  68  55 VRB1      30.12F
BOWLING GREEN  SUNNY     88  67  49 VRB5      30.14F HX  91
GLASGOW        SUNNY     86  64  47 CALM      30.15F
$$

KYZ024-025-028>034-038-045-046-053-021700-
NORTH CENTRAL KENTUCKY

CITY           SKY/WX    TMP DP  RH WIND       PRES   REMARKS
LOUISVILLE/SDF MOSUNNY   88  66  48 VRB5      30.13F HX  90
LOUISVILLE/LOU SUNNY     86  68  54 W3        30.15S
FORT KNOX      SUNNY     86  66  51 NW5       30.14F
$$

KYZ035>037-039>044-047>052-055>060-089>105-021700-
NORTHEAST KENTUCKY

CITY           SKY/WX    TMP DP  RH WIND       PRES   REMARKS
LEXINGTON      SUNNY     83  66  56 VRB3      30.16S
COVINGTON      MOSUNNY   84  69  60 W6        30.15S
FRANKFORT      SUNNY     85  66  53 NW5       30.15S
$$

KYZ054-064>069-076>088-106>120-021700-
SOUTHEAST KENTUCKY

CITY           SKY/WX    TMP DP  RH WIND       PRES   REMARKS
JACKSON        SUNNY     81  66  60 CALM      30.17F
LONDON         MOSUNNY   85  63  47 NE5       30.17S
SOMERSET       SUNNY     81  64  57 CALM      30.17S
MIDDLESBORO    MOSUNNY   80  70  71 CALM      30.16F
MONTICELLO     PTSUNNY   85  70  60 CALM      30.18F
$$




USA.gov is the U.S. government's official web portal to all federal, state and local government web resources and services.